Location: Caltech
(34.1382°N, 118.1253°W)
Time: 13:57:53
(UTC-07:00)

UOSAT-12 - Visible Passes

Search period start: 26 June 2016 00:00
Search period end: 06 July 2016 00:00
Orbit: 623 x 631 km, 64.6° (Epoch: 26 June)

Date Brightness Start Highest point End Pass type
(mag) Time Alt. Az. Time Alt. Az. Time Alt. Az.
26 Jun 9.7 01:20:15 10° NNE 01:22:44 14° NE 01:24:12 13° ENE visible
26 Jun 8.2 02:58:44 10° NW 03:01:25 34° NW 03:01:25 34° NW visible
27 Jun 8.8 01:38:58 10° N 01:42:30 29° NE 01:42:30 29° NE visible
27 Jun 9.4 03:19:15 10° WNW 03:19:43 12° WNW 03:19:43 12° WNW visible
28 Jun 8.6 01:58:26 10° NNW 02:00:59 32° NNW 02:00:59 32° NNW visible
29 Jun 9.5 00:39:29 10° N 00:42:21 17° NE 00:42:21 17° NE visible
29 Jun 9.3 02:18:25 10° NW 02:19:36 17° NW 02:19:36 17° NW visible
30 Jun 9.0 00:58:27 10° N 01:01:05 27° NNE 01:01:05 27° NNE visible
01 Jul 9.1 01:18:01 10° NNW 01:19:54 24° NNW 01:19:54 24° NNW visible
01 Jul 9.3 23:58:50 10° N 00:01:32 19° NE 00:01:32 19° NE visible
02 Jul 9.7 01:38:08 10° NW 01:38:48 14° NW 01:38:48 14° NW visible
03 Jul 8.9 00:17:57 10° NNW 00:20:29 28° N 00:20:29 28° N visible
03 Jul 9.7 23:00:11 10° NNE 23:01:32 11° NE 23:02:14 11° NE visible
04 Jul 9.2 00:37:38 10° NNW 00:39:30 24° NNW 00:39:30 24° NNW visible
04 Jul 9.0 23:18:12 10° N 23:21:18 22° NE 23:21:18 22° NE visible
05 Jul 9.7 00:57:54 10° NW 00:58:34 14° NW 00:58:34 14° NW visible
05 Jul 8.5 23:37:29 10° NNW 23:40:25 35° N 23:40:25 35° N visible
